Weather Service Report


480 
ASUS43 KFSD 271702
RWRFSD

WEATHER ROUNDUP FOR SE SOUTH DAKOTA/SW MINNESOTA/NW IOWA
NATIONAL WEATHER SERVICE SIOUX FALLS SD
1200 PM CDT MON APR 27 2015

NOTE: "FAIR" INDICATES FEW OR NO CLOUDS BELOW 12,000 FEET WITH NO
SIGNIFICANT WEATHER AND OR OBSTRUCTIONS TO VISIBILITY.


SDZ038>040-050-052>070-271800-
SOUTHEAST SOUTH DAKOTA
  
CITY           SKY/WX    TMP DP  RH WIND       PRES   REMARKS
CHAMBERLAIN    NOT AVBL                                               
HURON          SUNNY     66  25  21 N6        30.23F                  
MADISON        FAIR      61  25  25 E5        30.24S                  
MITCHELL       SUNNY     64  35  34 VRB6      30.23F                  
SIOUX FALLS    MOSUNNY   63  28  26 NE5       30.22F                  
WINNER         FAIR      66  31  27 N9        30.23S                  
YANKTON        SUNNY     63  34  34 N5        30.21S                  
$$

MNZ071-072-080-081-089-090-097-098-271800-
SOUTHWEST MINNESOTA
  
CITY           SKY/WX    TMP DP  RH WIND       PRES   REMARKS
FAIRMONT       SUNNY     63  27  25 N13G18    30.23F                  
JACKSON        SUNNY     61  21  21 E13       30.24F                  
LUVERNE        SUNNY     63  21  20 NW5       30.24S                  
MARSHALL       SUNNY     63  23  22 E7        30.24S                  
MONTEVIDEO     SUNNY     66  23  19 CALM      30.26S                  
REDWOOD FALLS  SUNNY     63  23  21 VRB6      30.24F                  
TRACY          SUNNY     63  25  23 NE6       30.24F                  
WORTHINGTON    SUNNY     61  25  25 N9G16     30.23F                  
$$

IAZ001>003-012>014-020>022-031-032-NEZ013-014-SDZ071-271800-
NORTHWEST IOWA
  
CITY           SKY/WX    TMP DP  RH WIND       PRES   REMARKS
DENISON        SUNNY     61  30  31 NE9       30.19S                  
ESTHERVILLE    SUNNY     61  30  31 NE12G21   30.22F                  
SIOUX CITY     SUNNY     64  26  23 VRB5      30.22S                  
SPENCER        SUNNY     63  28  26 NE13G21   30.22F                  
$$
 
ABBREVIATIONS USED IN REMARKS
   TC - TEMPERATURE IN CELSIUS
  WCI - WIND CHILL INDEX
   HX - HEAT INDEX
  VSB - VISIBILITY



481 
ASUS43 KFSD 271702
RWRSD 

WEATHER ROUNDUP FOR SOUTH DAKOTA
NATIONAL WEATHER SERVICE SIOUX FALLS SD
1200 PM CDT MON APR 27 2015

NOTE: "FAIR" INDICATES FEW OR NO CLOUDS BELOW 12,000 FEET WITH NO
SIGNIFICANT WEATHER AND/OR OBSTRUCTIONS TO VISIBILITY.


SDZ001>005-009-010-012>017-271800-
NORTHWEST AND NORTH CENTRAL SOUTH DAKOTA
  
CITY           SKY/WX    TMP DP  RH WIND       PRES   REMARKS
BUFFALO          N/A     42  38  85 NW15      30.27R                  
FAITH            N/A     46  40  79 NW15      30.29R                  
MOBRIDGE       MOSUNNY   60  44  55 NW10      30.22F                  
$$
 
SDZ012>016-024>037-041>051-057-063-072>074-271800-
SOUTHWEST AND SOUTH CENTRAL SOUTH DAKOTA
  
CITY           SKY/WX    TMP DP  RH WIND       PRES   REMARKS
RAPID CTY ARPT CLOUDY    44  39  82 N20G29    30.30R                  
PIERRE           N/A    N/A N/A N/A MISG      30.22F                  
CUSTER         CLOUDY    42  38  85 VRB3      30.29R                  
ELLSWORTH AFB  CLOUDY    43  38  82 N24       30.30R                  
PHILIP         MOSUNNY   57  44  62 NW16G24   30.26S                  
PINE RIDGE     CLOUDY    52  43  71 N8        30.29R                  
WINNER         FAIR      66  31  27 N9        30.23S                  
$$
 
SDZ004>011-016>023-039-040-271800-
NORTHEAST SOUTH DAKOTA
  
CITY           SKY/WX    TMP DP  RH WIND       PRES   REMARKS
ABERDEEN       SUNNY     66  22  18 VRB3      30.23F                  
WATERTOWN      NOT AVBL                                               
SISSETON         N/A     65  18  16 E3        30.23F                  
$$
 
SDZ017-020-022-023-036>040-048>070-271800-
SOUTHEAST SOUTH DAKOTA
  
CITY           SKY/WX    TMP DP  RH WIND       PRES   REMARKS
SIOUX FALLS    MOSUNNY   63  28  26 NE5       30.22F                  
HURON          SUNNY     66  25  21 N6        30.23F                  
MITCHELL       SUNNY     64  35  34 VRB6      30.23F                  
YANKTON        SUNNY     63  34  34 N5        30.21S                  
$$
 
ABBREVIATIONS USED IN REMARKS
   TC - TEMPERATURE IN CELSIUS
  WCI - WIND CHILL INDEX
   HX - HEAT INDEX
  VSB - VISIBILITY


Return to Home page


Western Regional Climate Center, wrcc@dri.edu